This is the latest recevied weather packets stored in our database for station/object DB0TBG. If no packets are shown the sender has not sent any weather packets the latest 10 day(s).
| Time | Temp. | Humidity | Pressure | Rain* | Wind** | Luminosity | Snow |
|---|---|---|---|---|---|---|---|
| 1777627295 | 18.33° C | 26% | 986 hPa | 0 mm | 0 m/s | - | - |
| 1777626694 | 18.33° C | 32% | 986 hPa | 0 mm | 0 m/s | - | - |
| 1777626092 | 17.22° C | 30% | 986 hPa | 0 mm | 0 m/s | - | - |
| 1777625491 | 16.67° C | 29% | 986 hPa | 0 mm | 0 m/s | - | - |
| 1777624890 | 16.11° C | 29% | 986 hPa | 0 mm | 0 m/s | - | - |
| 1777624290 | 16.11° C | 30% | 986 hPa | 0 mm | 0 m/s | - | - |
| 1777623090 | 15.56° C | 33% | 986 hPa | 0 mm | 0 m/s | - | - |
| 1777622491 | 15° C | 35% | 986 hPa | 0 mm | 0 m/s | - | - |
| 1777621892 | 15° C | 36% | 986 hPa | 0 mm | 0 m/s | - | - |
| 1777621281 | 14.44° C | 44% | 986 hPa | 0 mm | 0 m/s | - | - |
| 1777620682 | 13.89° C | 46% | 986 hPa | 0 mm | 0 m/s | - | - |
| 1777620083 | 13.33° C | 47% | 986 hPa | 0 mm | 0 m/s | - | - |
| 1777619475 | 12.78° C | 49% | 986 hPa | 0 mm | 0 m/s | - | - |
| 1777618876 | 12.22° C | 50% | 986 hPa | 0 mm | 0 m/s | - | - |
| 1777618276 | 11.67° C | 51% | 986 hPa | 0 mm | 0 m/s | - | - |
| 1777617653 | 11.11° C | 51% | 986 hPa | 0 mm | 0 m/s | - | - |
| 1777617054 | 10.56° C | 52% | 986 hPa | 0 mm | 0 m/s | - | - |
| 1777615837 | 9.44° C | 52% | 986 hPa | 0 mm | 0 m/s | - | - |
| 1777615238 | 10° C | 53% | 986 hPa | 0 mm | 0 m/s | - | - |
| 1777614639 | 10.56° C | 55% | 986 hPa | 0 mm | 0 m/s | - | - |
| 1777614037 | 8.89° C | 55% | 986 hPa | 0 mm | 0 m/s | - | - |
| 1777613438 | 7.22° C | 55% | 986 hPa | 0 mm | 0 m/s | - | - |
| 1777612825 | 6.67° C | 55% | 986 hPa | 0 mm | 0 m/s | - | - |
| 1777612216 | 6.11° C | 55% | 986 hPa | 0 mm | 0 m/s | - | - |
| 1777610978 | 5.56° C | 53% | 986 hPa | 0 mm | 0 m/s | - | - |
* Rain latest hour (hover to see other rain measurements)
** Current wind speed in m/s (hover to see current wind gust speed)